Starlink 33911

operational
NORAD ID: 63777 Int'l Des: 2025-091 Owner: SPXS Country: US Constellation: starlink
LEOCIRCULAR

Über Starlink 33911

Beschreibung wird geladen...

Live-Position

3D-Globus wird geladen...

Nächste Überflüge

Höhenverlauf

Altitude vs Time

uPlot chart will show altitude changes over time

Zweizeiliger Elementsatz

1 63777U 25091C 26034.94532929 .00031266 00000-0 11403-2 0 9994
2 63777 43.0023 235.9457 0002153 258.0917 101.9694 15.27595194 43827
Epoch: 3. Feb. 2026 • Age: 15 hours

Aktueller Status

Höhe 487.5 km
Geschwindigkeit 7.63 km/s
Subsatellitenpunkt 43.09°N, 6.51°W
Startdatum 2. Mai 2025
Alter 0.7 years
Typ internet

Technische Details

Klassifizierung Payload
Masse 575.00 kg
Trockenmasse 530.00 kg
Gesamtmasse 575.00 kg
Länge 0.30 m
Durchmesser 4.10 m
Spannweite 29.00 m
Form Box + pan
Hersteller SPXS
Bus-Typ Starlink V2MO
Phasenstatus In Orbit
Besitzer/Staat SPXS/US

Große Konstellationen

Loading constellations...